Voltar ao catálogo

STARLINK-2555

AtivoComunicaçõesVLEO
NORAD 48291·PAYLOAD·🇺🇸 United States

Lançado Apr 29, 2021 de Cape Canaveral Space Force Station

Loading…

Próximas Passagens (próximas 24 horas)

TLE

AtualizadoSource: CelesTrak SupGP

Época: Sep 14, 2026, 13:04 UTC

1 48291C 21036R   26257.54493056  .00043407  00000+0  13958-2 0  2576
2 48291  53.1579 278.9334 0001307  76.0802  89.8313 15.31680595    12

Acompanhe STARLINK-2555 em tempo real com AllMySat

Download on the App Store